Date String (YYYY-MM-DD hh:mm:ss) UTC,Instrument flags,Ambient pressure (hPa),Sample flow (lpm),Bypass flow (lpm),Sample temperature (°C),Ambient temperature (°C),ASC tube jacket temperature (°C),LED temperature (°C),Box temperature (°C),Sample RH (%),Span deviation,Mass concentration (μg/m³),Mass concentration (μg/m³),Mass concentration (μg/m³)
DateTimeUTC,F1_M11,P_M11,Q1_M11,Q2_M11,T1_M11,T2_M11,T3_M11,T4_M11,T5_M11,U1_M11,ZSPAN_M11,X0_M11,X2_M11,X1_M11
2023-03-11 20:00:00,,0815.1,5.00,0.00,23.0,21.5,00.0,31.8,24.9,06.5,0000.0,0003.52,0001.22,0000.63
2023-03-11 20:01:00,,0815.2,5.01,0.00,23.0,21.5,00.0,31.8,24.9,06.0,0000.0,0003.51,0001.23,0000.63
2023-03-11 20:02:00,,0815.2,5.01,0.00,23.0,21.5,00.0,31.8,24.9,06.2,0000.0,0003.41,0001.20,0000.63
2023-03-11 20:03:00,,0815.2,5.00,0.00,23.0,21.5,00.0,31.8,24.8,06.0,0000.0,0003.34,0001.19,0000.63
2023-03-11 20:04:00,,0815.2,4.98,0.00,23.0,21.5,00.0,31.8,24.8,05.9,0000.0,0003.46,0001.25,0000.65
2023-03-11 20:05:00,,0815.1,5.01,0.00,23.0,21.5,00.0,31.8,24.8,06.0,0000.0,0003.66,0001.30,0000.67
2023-03-11 20:06:00,,0815.1,5.00,0.00,23.0,21.5,00.0,31.8,24.8,06.1,0000.0,0003.62,0001.29,0000.67
2023-03-11 20:07:00,,0815.2,5.01,0.00,23.0,21.5,00.0,31.8,24.8,06.2,0000.0,0003.72,0001.31,0000.66
2023-03-11 20:08:00,,0815.2,5.00,0.00,23.0,21.5,00.0,31.8,24.8,06.2,0000.0,0002.89,0001.37,0000.68
2023-03-11 20:09:00,,0815.1,5.00,0.00,23.0,21.4,00.0,31.8,24.8,06.1,0000.0,0003.28,0001.39,0000.69
2023-03-11 20:10:00,,0815.1,5.00,0.00,23.0,21.5,00.0,31.8,24.8,05.7,0000.0,0004.07,0001.38,0000.69
2023-03-11 20:11:00,,0815.0,5.00,0.00,23.0,21.5,00.0,31.8,24.8,05.6,0000.0,0004.12,0001.41,0000.70
2023-03-11 20:12:00,,0815.0,5.01,0.00,23.0,21.5,00.0,31.7,24.8,05.5,0000.0,0004.22,0001.45,0000.71
2023-03-11 20:13:00,,0814.9,5.00,0.00,23.0,21.4,00.0,31.7,24.8,05.6,0000.0,0004.31,0001.48,0000.72
2023-03-11 20:14:00,,0815.1,5.00,0.00,23.0,21.4,00.0,31.7,24.8,05.7,0000.0,0005.66,0001.52,0000.72
2023-03-11 20:15:00,,0815.2,5.00,0.00,23.0,21.3,00.0,31.7,24.7,06.0,0000.0,0006.76,0001.51,0000.70
2023-03-11 20:16:00,,0815.3,5.01,0.00,22.9,21.3,00.0,31.7,24.7,06.2,0000.0,0007.64,0001.47,0000.70
2023-03-11 20:17:00,,0815.2,5.01,0.00,22.9,21.4,00.0,31.7,24.7,06.2,0000.0,0007.64,0001.46,0000.71
2023-03-11 20:18:00,,0815.3,5.00,0.00,22.9,21.4,00.0,31.7,24.7,05.6,0000.0,0007.70,0001.50,0000.72
2023-03-11 20:19:00,,0815.3,5.00,0.00,22.9,21.4,00.0,31.7,24.6,05.9,0000.0,0007.79,0001.54,0000.72
2023-03-11 20:20:00,,0815.3,5.00,0.00,22.9,21.4,00.0,31.7,24.6,06.0,0000.0,0007.63,0001.53,0000.73
2023-03-11 20:21:00,,0815.3,5.02,0.00,22.9,21.4,00.0,31.7,24.6,05.8,0000.0,0007.07,0001.59,0000.74
2023-03-11 20:22:00,,0815.1,5.01,0.00,22.9,21.4,00.0,31.7,24.7,06.0,0000.0,0007.17,0001.60,0000.75
2023-03-11 20:23:00,,0815.1,5.00,0.00,22.9,21.4,00.0,31.7,24.7,05.8,0000.0,0007.24,0001.59,0000.75
2023-03-11 20:24:00,,0815.1,4.99,0.00,22.9,21.4,00.0,31.7,24.7,05.9,0000.0,0007.42,0001.60,0000.75
2023-03-11 20:25:00,,0815.1,5.00,0.00,22.9,21.4,00.0,31.7,24.7,06.1,0000.0,0006.90,0001.65,0000.77
2023-03-11 20:26:00,,0815.1,5.00,0.00,22.9,21.4,00.0,31.7,24.7,06.1,0000.0,0007.12,0001.64,0000.78
2023-03-11 20:27:00,,0815.3,5.00,0.00,22.9,21.4,00.0,31.6,24.7,06.0,0000.0,0006.47,0001.67,0000.77
2023-03-11 20:28:00,,0815.2,5.01,0.00,22.9,21.4,00.0,31.6,24.8,06.0,0000.0,0006.47,0001.68,0000.77
2023-03-11 20:29:00,,0815.2,5.01,0.00,22.9,21.4,00.0,31.6,24.7,06.0,0000.0,0006.29,0001.63,0000.78
2023-03-11 20:30:00,,0815.4,5.01,0.00,22.9,21.4,00.0,31.7,24.6,05.8,0000.0,0006.32,0001.58,0000.77
2023-03-11 20:31:00,,0815.3,5.00,0.00,22.9,21.4,00.0,31.6,24.6,06.1,0000.0,0006.46,0001.60,0000.77
2023-03-11 20:32:00,,0815.3,5.00,0.00,22.9,21.4,00.0,31.6,24.7,06.0,0000.0,0006.33,0001.54,0000.76
2023-03-11 20:33:00,,0815.3,4.99,0.00,22.9,21.4,00.0,31.6,24.7,05.9,0000.0,0006.27,0001.53,0000.75
2023-03-11 20:34:00,,0815.3,5.00,0.00,22.9,21.4,00.0,31.7,24.6,06.0,0000.0,0006.08,0001.51,0000.74
2023-03-11 20:35:00,,0815.3,5.00,0.00,22.9,21.4,00.0,31.7,24.6,05.9,0000.0,0005.92,0001.50,0000.74
2023-03-11 20:36:00,,0815.4,5.00,0.00,22.9,21.4,00.0,31.6,24.7,06.0,0000.0,0005.02,0001.43,0000.73
2023-03-11 20:37:00,,0815.4,5.00,0.00,22.9,21.5,00.0,31.6,24.8,06.1,0000.0,0004.23,0001.44,0000.72
2023-03-11 20:38:00,,0815.3,5.01,0.00,22.9,21.5,00.0,31.6,24.7,06.0,0000.0,0003.35,0001.48,0000.73
2023-03-11 20:39:00,,0815.4,5.00,0.00,22.9,21.5,00.0,31.6,24.6,06.2,0000.0,0003.82,0001.48,0000.74
2023-03-11 20:40:00,,0815.4,5.01,0.00,22.9,21.5,00.0,31.7,24.7,05.9,0000.0,0004.47,0001.50,0000.74
2023-03-11 20:41:00,,0815.4,5.00,0.00,22.9,21.5,00.0,31.7,24.8,05.8,0000.0,0004.53,0001.60,0000.75
2023-03-11 20:42:00,,0815.3,5.01,0.00,22.9,21.5,00.0,31.7,24.7,05.7,0000.0,0004.23,0001.58,0000.75
2023-03-11 20:43:00,,0815.3,5.00,0.00,22.9,21.5,00.0,31.7,24.7,05.9,0000.0,0004.34,0001.63,0000.75
2023-03-11 20:44:00,,0815.2,5.00,0.00,22.9,21.5,00.0,31.7,24.7,05.8,0000.0,0004.37,0001.65,0000.74
2023-03-11 20:45:00,,0815.3,5.00,0.00,22.9,21.4,00.0,31.7,24.6,05.7,0000.0,0004.39,0001.65,0000.75
2023-03-11 20:46:00,,0815.3,5.00,0.00,22.9,21.4,00.0,31.7,24.6,05.8,0000.0,0004.43,0001.62,0000.75
2023-03-11 20:47:00,,0815.3,5.01,0.00,22.9,21.4,00.0,31.7,24.7,06.0,0000.0,0004.61,0001.67,0000.75
2023-03-11 20:48:00,,0815.3,5.00,0.00,22.9,21.4,00.0,31.7,24.7,06.0,0000.0,0004.64,0001.69,0000.74
2023-03-11 20:49:00,,0815.4,5.01,0.00,22.9,21.5,00.0,31.7,24.7,06.2,0000.0,0004.49,0001.69,0000.74
2023-03-11 20:50:00,,0815.4,5.00,0.00,22.9,21.5,00.0,31.7,24.8,06.4,0000.0,0003.98,0001.65,0000.72
2023-03-11 20:51:00,,0815.4,4.99,0.00,22.9,21.5,00.0,31.7,24.8,06.4,0000.0,0003.46,0001.66,0000.72
2023-03-11 20:52:00,,0815.4,4.99,0.00,22.9,21.5,00.0,31.6,24.7,06.2,0000.0,0003.39,0001.54,0000.69
2023-03-11 20:53:00,,0815.4,5.01,0.00,22.9,21.5,00.0,31.7,24.7,06.0,0000.0,0003.32,0001.47,0000.68
2023-03-11 20:54:00,,0815.4,5.00,0.00,22.9,21.5,00.0,31.7,24.8,06.2,0000.0,0003.38,0001.49,0000.69
2023-03-11 20:55:00,,0815.7,5.00,0.00,22.9,21.5,00.0,31.7,24.7,06.4,0000.0,0003.45,0001.47,0000.68
2023-03-11 20:56:00,,0815.9,4.98,0.00,22.9,21.5,00.0,31.7,24.7,06.5,0000.0,0003.31,0001.40,0000.67
2023-03-11 20:57:00,,0816.0,5.00,0.00,22.9,21.5,00.0,31.7,24.7,06.5,0000.0,0003.23,0001.38,0000.65
2023-03-11 20:58:00,,0816.0,5.01,0.00,22.9,21.5,00.0,31.7,24.7,06.6,0000.0,0003.03,0001.31,0000.64
2023-03-11 20:59:00,,0815.7,5.01,0.00,22.9,21.5,00.0,31.7,24.8,06.7,0000.0,0002.87,0001.26,0000.64
